User: anonymous
Location: Irma
(52.9170°N, 111.2330°W)
Time: 05:15:47
(UTC-06:00)
Language:

Cosmos 2279 Rocket - Orbit

View from above orbital plane
View from above orbital plane
View from above satellite
View from above satellite

Ground track
Ground track

The orbit data is extracted from the following two-line orbital elements,

1 23093U 94024B   14243.09227046  .00000028  00000-0  12575-4 0  8948
2 23093 082.9500 153.8604 0009723 354.2350 005.8694 13.77625144490839
Epoch (UTC): 31 August 2014 02:12:52
Eccentricity: 0.0009723
inclination: 82.9500°
perigee height: 965 km
apogee height: 979 km
right ascension of ascending node: 153.8604°
argument of perigee: 354.2350°
revolutions per day: 13.77625144
mean anomaly at epoch: 5.8694°
orbit number at epoch: 49083

The dashed part of the orbit path shows where the satellite is in the earth's shadow,  

DLR